Wind_Speed
58 58 57 57 57 59 60 62 63 64 64 63 63 64 66 67 66 65 63 61 59 56 55 54 54 54 54 54 53 53 54 54 54 54 55 56 57 57
58 58 58 59 60 61 63 64 66 67 67 65 63 60 60 62 62 60 58 56 54 53 52 51 51 51 51 51 51 51 51 51 51 51 52 53 54 55
59 59 60 61 62 63 64 65 65 65 64 61 59 55 53 53 53 53 51 49 48 47 47 46 47 47 48 47 47 47 47 47 47 48 49 50 52 54
59 60 61 62 63 63 62 61 59 57 56 52 50 48 46 45 45 45 43 43 42 41 41 41 41 42 42 43 43 43 44 44 44 44 45 47 48 50
60 61 61 61 60 58 56 53 50 48 46 44 41 40 39 39 39 38 38 37 36 35 34 34 36 37 37 38 39 40 41 42 43 43 42 43 45 48
60 60 59 57 53 49 45 43 41 40 38 35 33 32 32 33 33 32 31 30 29 28 28 29 30 31 33 35 37 38 40 41 42 42 42 41 42 44
57 55 52 48 44 41 39 37 35 33 30 28 27 27 27 27 26 25 24 23 22 22 22 24 25 27 29 31 34 36 38 40 41 42 42 42 42 43
51 47 44 42 40 38 35 33 30 27 25 24 23 22 22 21 19 18 17 16 16 17 19 20 22 24 27 29 32 34 37 39 41 42 42 42 43 43
45 42 41 40 37 34 31 28 25 22 21 20 19 18 16 14 12 10 10 11 12 14 15 17 19 21 24 27 30 32 35 38 40 42 43 43 44 44
41 39 37 34 32 29 25 22 19 17 16 14 13 10 8 6 5 5 6 7 8 10 12 14 16 19 21 24 27 30 34 37 39 42 43 44 45 45
37 34 30 28 25 21 17 14 12 11 9 7 5 3 1 2 2 3 3 4 6 7 10 12 14 17 19 21 23 26 29 33 37 41 43 44 46 46
30 27 24 19 15 11 8 6 5 3 2 2 2 3 4 4 4 3 2 2 4 6 7 10 11 12 14 16 18 21 25 29 33 37 40 42 45 46
24 21 17 12 7 4 2 1 2 4 4 5 6 7 7 7 6 4 2 1 1 2 4 6 6 6 6 8 10 13 17 22 27 32 37 40 42 42
17 14 9 6 3 3 5 6 7 8 9 9 10 9 9 7 6 5 4 4 2 1 2 1 1 2 3 3 3 4 6 11 17 25 33 37 39 40
13 9 6 7 8 9 10 10 11 11 12 11 11 10 9 8 7 7 7 6 6 6 7 7 9 10 11 11 10 10 11 14 18 25 31 35 39 40
9 8 9 10 11 12 13 13 13 13 12 12 11 10 9 8 8 9 10 10 11 11 12 15 16 17 16 16 16 16 17 20 25 29 32 36 39 41
7 9 11 13 14 15 15 15 14 13 13 12 10 9 9 10 11 12 13 14 15 16 17 19 21 22 22 21 21 21 23 25 28 30 33 37 41 43
10 12 14 15 16 17 17 16 15 14 12 11 10 10 11 12 14 15 16 16 17 18 20 22 24 25 24 24 24 24 25 26 28 31 34 36 40 42
12 14 15 16 17 17 16 15 14 13 11 11 11 11 13 15 16 17 18 18 19 20 21 23 25 26 25 25 27 27 26 26 28 30 33 34 36 39
13 15 16 17 17 16 15 14 13 12 11 11 12 14 16 17 17 18 19 19 19 19 20 22 25 26 26 26 26 28 28 28 28 29 31 32 33 35
14 15 16 16 16 15 14 13 12 12 12 12 14 16 18 18 19 19 19 19 19 19 19 20 22 25 26 25 25 26 28 28 29 30 31 32 32 33
15 15 15 15 14 13 13 12 12 12 12 13 15 18 19 19 19 19 19 19 18 18 19 19 20 22 24 24 24 24 25 26 27 27 28 29 29 29
15 14 14 14 13 12 12 12 12 12 13 14 17 19 20 20 20 20 19 19 18 18 18 17 17 18 20 21 21 20 20 20 21 21 22 22 23 23
Wind_Direction
293 292 290 289 288 287 286 285 284 283 282 281 281 279 277 276 274 273 271 270 268 266 265 263 261 258 254 250 246 244 243 241 240 240 240 240 241 241
294 293 292 291 289 289 288 287 286 285 284 283 282 280 277 275 273 271 269 268 266 265 263 260 257 254 251 247 244 243 241 239 239 239 239 238 237 236
295 294 293 292 291 291 290 289 288 287 286 284 283 280 277 274 271 269 267 266 264 262 259 255 252 250 247 244 242 240 237 236 236 237 237 236 235 232
296 295 295 294 294 293 292 291 289 288 287 286 284 281 277 273 270 268 267 265 263 260 256 252 249 246 243 240 238 236 234 233 234 234 235 234 233 229
298 298 297 297 296 294 293 291 289 288 288 287 284 280 276 273 270 269 267 265 262 258 253 248 245 242 239 236 234 232 232 231 231 231 231 231 230 227
301 300 299 298 297 296 293 292 290 290 289 287 285 281 277 274 272 269 267 263 259 254 249 245 242 238 235 234 232 232 231 230 229 229 229 228 226 225
302 301 300 299 298 296 294 292 292 291 289 289 286 283 278 274 273 270 265 259 254 248 242 239 237 235 234 234 233 233 232 230 229 227 227 226 225 224
303 302 301 299 299 297 294 292 292 290 289 289 288 284 280 276 272 266 259 252 245 240 237 237 238 238 238 238 238 236 234 232 229 228 227 225 224 224
304 303 301 300 298 296 294 291 290 288 289 289 285 282 279 274 267 258 249 241 238 237 239 242 244 245 245 244 242 239 236 233 231 228 226 225 225 224
306 305 304 301 298 295 292 287 287 287 288 286 282 279 274 266 250 235 231 233 236 243 246 247 250 251 250 248 246 242 238 235 232 230 227 226 224 222
310 309 308 304 300 295 290 284 284 286 283 277 276 268 249 183 168 178 200 220 234 244 253 257 259 257 254 251 247 242 238 234 231 228 226 224 221 220
316 315 314 312 306 299 291 281 278 272 232 192 158 127 123 122 122 127 148 196 240 255 261 265 264 259 257 250 245 243 238 234 229 225 220 217 215 214
322 321 321 322 320 317 313 149 135 136 138 130 119 113 112 111 108 108 112 130 253 259 275 275 260 254 251 242 241 238 235 231 224 218 212 208 206 206
333 334 341 355 28 74 96 107 117 123 122 118 114 111 109 103 97 93 92 94 91 24 0 358 75 113 129 131 150 181 196 197 198 197 196 195 194 193
352 6 32 64 82 92 100 107 113 117 115 111 111 108 101 92 89 92 94 91 80 67 74 83 89 98 102 97 96 108 126 141 156 167 173 177 178 178
16 47 72 83 91 97 102 106 110 111 109 108 108 102 92 90 94 98 97 90 80 75 80 89 90 93 97 98 100 105 117 128 137 147 155 160 163 166
53 78 87 93 97 101 104 106 108 107 106 105 102 95 92 96 103 105 102 92 81 78 82 86 88 90 96 99 103 109 116 124 132 139 147 153 157 159
84 93 97 100 102 104 105 106 107 105 104 101 97 95 98 106 111 110 104 94 86 85 86 85 84 88 94 102 107 112 117 123 130 137 143 149 154 157
99 104 106 106 107 106 105 105 104 101 99 97 96 101 107 113 116 114 108 98 93 91 89 88 88 88 92 100 108 112 116 122 129 136 142 147 153 158
108 111 110 109 107 105 102 101 100 99 99 96 98 108 114 116 119 118 112 104 99 96 94 92 93 94 97 99 104 110 116 123 129 136 143 149 155 159
114 114 112 110 108 104 101 99 98 100 99 97 105 115 118 120 122 122 118 111 107 103 100 98 99 100 101 103 106 111 116 122 129 136 141 146 151 154
116 115 113 111 107 102 99 97 96 101 101 104 112 120 122 123 125 124 121 116 113 110 107 103 104 105 106 106 108 111 116 120 125 131 137 142 148 153
116 116 114 112 107 99 97 97 97 101 104 110 119 124 126 126 125 124 122 119 116 114 111 109 107 107 108 109 112 115 119 123 130 136 141 147 154 160
Height
5653 5647 5642 5636 5631 5626 5621 5615 5611 5607 5604 5600 5595 5589 5586 5584 5583 5583 5583 5584 5585 5587 5587 5588 5590 5592 5595 5599 5603 5608 5614 5620 5626 5632 5638 5644 5651 5657
5638 5632 5626 5621 5615 5609 5603 5597 5591 5586 5583 5579 5574 5569 5565 5563 5562 5562 5563 5564 5566 5568 5569 5570 5572 5574 5578 5583 5588 5593 5599 5605 5612 5618 5624 5630 5636 5642
5623 5617 5611 5604 5598 5591 5584 5578 5572 5566 5562 5559 5554 5550 5547 5544 5544 5544 5545 5547 5549 5550 5551 5553 5555 5559 5563 5568 5573 5579 5585 5592 5598 5604 5610 5616 5621 5628
5608 5601 5594 5586 5579 5572 5565 5559 5553 5547 5543 5540 5537 5533 5531 5529 5529 5529 5530 5532 5533 5535 5536 5539 5541 5545 5550 5555 5561 5567 5573 5580 5586 5592 5598 5604 5609 5615
5591 5584 5576 5569 5562 5555 5548 5543 5537 5533 5528 5525 5523 5519 5517 5516 5516 5517 5518 5519 5520 5522 5524 5527 5530 5534 5539 5545 5550 5556 5563 5569 5575 5581 5587 5592 5598 5605
5575 5567 5559 5552 5546 5540 5534 5529 5525 5521 5517 5514 5511 5509 5507 5506 5506 5507 5508 5508 5510 5512 5515 5518 5521 5526 5530 5536 5542 5547 5553 5559 5565 5571 5576 5583 5589 5596
5560 5551 5544 5538 5532 5527 5523 5518 5514 5511 5508 5505 5503 5500 5499 5498 5498 5499 5499 5500 5502 5505 5508 5511 5515 5519 5523 5528 5533 5538 5543 5548 5554 5560 5567 5573 5580 5587
5545 5538 5532 5526 5521 5516 5512 5508 5505 5503 5500 5498 5496 5494 5493 5492 5492 5493 5494 5495 5498 5501 5504 5507 5510 5513 5517 5520 5524 5528 5533 5538 5544 5550 5557 5563 5570 5578
5533 5526 5520 5515 5510 5506 5502 5499 5498 5496 5494 5492 5491 5489 5488 5488 5488 5489 5491 5493 5495 5498 5500 5503 5505 5507 5510 5512 5515 5518 5522 5527 5532 5539 5545 5553 5560 5568
5522 5515 5510 5504 5499 5496 5494 5493 5492 5491 5489 5488 5487 5486 5486 5486 5487 5488 5490 5492 5494 5496 5497 5499 5500 5501 5502 5504 5506 5508 5511 5515 5520 5526 5533 5541 5549 5557
5512 5506 5500 5495 5491 5489 5488 5487 5487 5487 5486 5486 5486 5486 5486 5486 5487 5489 5490 5492 5493 5494 5494 5495 5495 5495 5495 5496 5496 5498 5500 5503 5508 5514 5521 5529 5538 5546
5504 5498 5493 5489 5487 5485 5484 5485 5485 5485 5485 5486 5486 5487 5487 5488 5489 5490 5491 5492 5492 5492 5492 5492 5491 5490 5489 5489 5489 5489 5490 5493 5496 5502 5509 5517 5526 5536
5499 5494 5490 5487 5485 5484 5483 5484 5485 5485 5486 5487 5488 5489 5490 5491 5492 5492 5493 5492 5492 5491 5491 5489 5488 5486 5485 5484 5483 5482 5482 5483 5486 5491 5498 5508 5518 5530
5496 5491 5488 5486 5485 5484 5485 5485 5486 5488 5489 5490 5491 5492 5493 5494 5494 5494 5494 5494 5493 5492 5490 5488 5486 5485 5483 5482 5481 5479 5478 5478 5480 5484 5492 5502 5513 5525
5494 5491 5489 5487 5487 5487 5487 5488 5490 5491 5493 5494 5495 5496 5497 5497 5497 5497 5497 5496 5495 5493 5491 5489 5487 5486 5484 5483 5482 5481 5480 5481 5482 5487 5494 5503 5513 5524
5495 5493 5491 5490 5490 5490 5491 5493 5494 5496 5497 5498 5499 5500 5500 5500 5500 5500 5500 5499 5498 5496 5494 5492 5490 5489 5488 5487 5487 5487 5487 5488 5490 5495 5502 5509 5518 5528
5497 5495 5494 5494 5494 5495 5496 5498 5499 5501 5502 5503 5503 5504 5504 5504 5504 5504 5504 5504 5503 5501 5499 5497 5495 5494 5494 5494 5495 5495 5497 5498 5501 5506 5512 5518 5525 5534
5500 5499 5498 5499 5499 5500 5502 5503 5504 5505 5506 5507 5507 5507 5508 5508 5509 5510 5510 5509 5509 5508 5506 5505 5503 5502 5502 5503 5504 5505 5507 5510 5513 5517 5523 5530 5536 5542
5503 5503 5503 5504 5505 5506 5507 5508 5509 5510 5511 5511 5511 5511 5512 5513 5514 5515 5516 5516 5516 5516 5515 5514 5513 5512 5512 5514 5514 5515 5518 5521 5525 5530 5535 5541 5548 5554
5507 5508 5508 5509 5510 5511 5512 5513 5514 5514 5515 5515 5515 5516 5517 5518 5520 5521 5522 5523 5523 5524 5524 5523 5522 5522 5523 5525 5526 5527 5529 5533 5537 5541 5547 5552 5558 5565
5511 5512 5513 5515 5516 5517 5517 5518 5518 5519 5519 5519 5520 5521 5522 5523 5525 5527 5528 5529 5530 5531 5532 5533 5532 5532 5534 5536 5538 5539 5541 5543 5547 5552 5557 5563 5568 5574
5516 5517 5518 5520 5521 5521 5522 5523 5523 5523 5523 5524 5524 5526 5527 5529 5531 5533 5534 5536 5537 5539 5540 5541 5542 5542 5543 5546 5548 5551 5553 5556 5559 5563 5567 5572 5577 5582
5521 5522 5523 5524 5525 5526 5527 5527 5527 5528 5528 5529 5530 5531 5533 5535 5537 5538 5540 5542 5544 5545 5547 5549 5550 5551 5552 5554 5556 5559 5562 5565 5569 5572 5576 5579 5584 5588